Location: Crayja
(6.2254°N, 10.6273°W)
Time: 08:31:27
(UTC+00:00)

Cosmos 967 Rocket - Pass Details

Date: 17 February 2020
Orbit: 942 x 996 km, 65.8° (Epoch: 06 April)

Event Time Altitude Azimuth Distance (km) Brightness Sun altitude
Rises 05:58:45 0° 204° (SSW) 3,620 7.4 -15.4°
Reaches altitude 10° 06:01:17 10° 205° (SSW) 2,681 6.7 -14.8°
Maximum altitude 06:07:32 78° 290° (WNW) 988 4.4 -13.2°
Drops below altitude 10° 06:13:53 10° 17° (NNE) 2,714 6.9 -11.7°
Sets 06:16:28 0° 18° (NNE) 3,668 7.6 -11.1°
